Location: Bagnolo San Vito
(45.0833°N, 10.8833°E)
Time: 00:07:16
(UTC+00:00)

Cosmos 1777 Rocket - Pass Details

Date: 03 March 2021
Orbit: 759 x 775 km, 74.0° (Epoch: 17 April)

Event Time Altitude Azimuth Distance (km) Brightness Sun altitude
Rises 18:28:18 0° 343° (NNW) 3,248 7.6 -15.2°
Reaches altitude 10° 18:30:49 10° 351° (N) 2,315 6.7 -15.6°
Maximum altitude 18:35:48 42° 62° (ENE) 1,084 4.4 -16.5°
Enters shadow 18:38:02 28° 113° (ESE) 1,418 4.8 -16.9°
